NKS880 KBWI-TJSJ

Flight info

Callsign NKS880
Flight time N/A
Altitude 38000
Route CONLE5 SCOOB DCT EARZZ DCT SKARP Y313 IDOLS DCT CANIT/N0446F390 DCT NUCAR Y355 PLING RTE7 SAALR
Aircraft A320/M-SDE3FGHIRWY/LB1

Departure

Time 2026-04-28 20:29
Airport Baltimore/Washington International Thurgood Marshall Airport (KBWI)

Arrival

Time N/A
Airport Luis Munoz Marin International Airport (TJSJ)
Time Latitude Longitude Altitude Speed Heading
2026-04-28 20:13 39.17853 -76.66488 149 ft 0 kts 39°
2026-04-28 20:18 39.17853 -76.66487 149 ft 0 kts 39°
2026-04-28 20:20 39.17853 -76.66488 150 ft 1 kts 39°
2026-04-28 20:20 39.17842 -76.66499 150 ft 2 kts 39°
2026-04-28 20:20 39.17830 -76.66512 150 ft 2 kts 39°
2026-04-28 20:20 39.17819 -76.66526 150 ft 2 kts 64°
2026-04-28 20:21 39.17815 -76.66544 149 ft 2 kts 90°
2026-04-28 20:21 39.17818 -76.66563 149 ft 2 kts 118°
2026-04-28 20:21 39.17825 -76.66575 150 ft 0 kts 138°
2026-04-28 20:21 39.17831 -76.66581 150 ft 0 kts 142°
2026-04-28 20:23 39.17830 -76.66580 150 ft 1 kts 142°
2026-04-28 20:24 39.17793 -76.66543 149 ft 12 kts 142°
2026-04-28 20:24 39.17732 -76.66457 147 ft 13 kts 119°
2026-04-28 20:24 39.17655 -76.66451 146 ft 14 kts 217°
2026-04-28 20:24 39.17566 -76.66451 146 ft 14 kts 140°
2026-04-28 20:25 39.17475 -76.66479 146 ft 15 kts 213°
2026-04-28 20:25 39.17451 -76.66599 146 ft 15 kts 273°
2026-04-28 20:25 39.17458 -76.66739 146 ft 16 kts 273°
2026-04-28 20:25 39.17465 -76.66888 146 ft 17 kts 273°
2026-04-28 20:26 39.17497 -76.67036 146 ft 18 kts 298°
2026-04-28 20:26 39.17592 -76.67151 143 ft 19 kts 323°
2026-04-28 20:26 39.17708 -76.67261 142 ft 21 kts 323°
2026-04-28 20:26 39.17832 -76.67375 139 ft 22 kts 324°
2026-04-28 20:27 39.17962 -76.67493 137 ft 23 kts 324°
2026-04-28 20:27 39.18097 -76.67618 136 ft 23 kts 324°
2026-04-28 20:27 39.18231 -76.67741 137 ft 23 kts 324°
2026-04-28 20:27 39.18364 -76.67866 137 ft 23 kts 323°
2026-04-28 20:28 39.18497 -76.67992 134 ft 24 kts 323°
2026-04-28 20:28 39.18534 -76.68166 126 ft 20 kts 204°
2026-04-28 20:28 39.18369 -76.68045 130 ft 53 kts 144°
2026-04-28 20:28 39.17864 -76.67574 135 ft 121 kts 144°
2026-04-28 20:29 39.17048 -76.66822 343 ft 155 kts 144°
2026-04-28 20:29 39.16204 -76.66044 1081 ft 148 kts 146°
2026-04-28 20:29 39.15423 -76.65320 1834 ft 138 kts 147°
2026-04-28 20:29 39.14639 -76.64596 2235 ft 145 kts 148°
2026-04-28 20:30 39.13775 -76.63805 2542 ft 160 kts 148°
2026-04-28 20:30 39.12831 -76.62941 2901 ft 173 kts 148°
2026-04-28 20:30 39.11811 -76.62003 3218 ft 189 kts 148°
2026-04-28 20:30 39.10736 -76.60877 3508 ft 209 kts 141°
2026-04-28 20:31 39.09650 -76.59502 3783 ft 230 kts 138°
2026-04-28 20:31 39.08481 -76.57940 4169 ft 252 kts 136°
2026-04-28 20:31 39.07237 -76.56270 4750 ft 270 kts 136°
2026-04-28 20:31 39.05911 -76.54491 5515 ft 281 kts 135°
2026-04-28 20:32 39.04533 -76.52643 6312 ft 290 kts 134°
2026-04-28 20:32 39.03122 -76.50751 7091 ft 299 kts 135°
2026-04-28 20:32 39.01671 -76.48807 7987 ft 304 kts 135°
2026-04-28 20:32 39.00129 -76.46925 8858 ft 307 kts 148°
2026-04-28 20:33 38.98179 -76.45988 9654 ft 301 kts 180°
2026-04-28 20:33 38.96181 -76.46308 10477 ft 293 kts 201°
2026-04-28 20:33 38.94191 -76.47113 11069 ft 305 kts 203°
2026-04-28 20:33 38.92136 -76.47952 11741 ft 312 kts 202°
2026-04-28 20:34 38.90043 -76.48769 12456 ft 316 kts 202°
2026-04-28 20:34 38.87947 -76.49563 13170 ft 320 kts 201°
2026-04-28 20:34 38.85802 -76.50360 13866 ft 324 kts 202°